Погода в Прусово

Россия / Ярославская область     57°34′34″N   40°09′13″E
темп.,
°C
ветер,
м/с
пор.,
м/с
влажн.,
%
обл.,
%
осадки,
мм/ч
давл.,
гПа
погр.,
м
13 мая, чт
чт1300:00+14вюв2291100 0.4 102124
03:00+13юв35925 0.4 102194
06:00+13ююв37919 0.0 1020227
09:00+17ююв478089 0.1 1020890
12:00+18юв487498 0.2 10191285
15:00+21юв5763100 0.7 10171296
18:00+18юв61281100 4.3 1014651
21:00+12ююв2292100 11.8 101650
14 мая, пт
пт1400:00+10ю33940 0.0 101651
03:00+10ю2293100 0.0 101714
06:00+12ю259165 0.0 1018148
09:00+17ю467598 0.0 1018645
12:00+19ю5763100 0.0 10181516
15:00+20ююз476096 0.0 10171604
18:00+19ю2676100 1.1 1016574
21:00+14вюв359078 5.1 101593
15 мая, сб
сб1500:00+14вюв41093100 1.1 1014217
03:00+14юв41095100 2.4 1012195
06:00+15ююв51193100 0.0 1012265
09:00+18вюв5108898 0.3 1010263
12:00+20юв4778100 4.1 1009161
15:00+20ю2675100 6.6 1008463
18:00+19ю612814 1.1 1008604
21:00+16ююз614880 1.9 1009459
16 мая, вс
вс1600:00+14ююз613910 0.0 1010513
03:00+13ююз6139548 0.0 1011508
06:00+13ююз6129388 0.0 1012476
09:00+17юз697975 0.0 1013737
12:00+20юз686325 0.1 10131579
15:00+21юз686052 0.8 10132017
18:00+19юз47725 0.9 1013374
21:00+15юз338682 1.2 101436
17 мая, пн
пн1700:00+13зюз23910 0.0 101533
03:00+12юз22923 0.0 101615
06:00+14ююз128895 0.0 101770
09:00+18ю1276100 0.0 1017413
12:00+21ююв2364100 0.0 10171065
15:00+22юв2356100 0.0 10161313
18:00+21в367297 0.0 1015214
21:00+16вюв4118721 0.2 1015180